CZ-6A DEB, 61824

Orbit data source: Space-Track

CZ-6A DEB, 61824 is space debris in LEO originally from a launch on Tue, 06 Aug 2024 UTC launched from the Taiyaun Space Center, China (TSC). Debris objects in space refer to the collection of defunct objects orbiting the Earth. Examples of debris include non-operational satellites, rocket bodies, and fragments generated from explosions, collisions, or faulty payload assembly.

Loading next visibility...
Identifier
61824, 2024-140ACQ
Orbit
LEO
Country
Flag of CNCN / PRC
Related business
Manufacturer
SAST
Mission
Spacecraft
Bus & Motor
Unknown
Mass
Unknown
Launch date (UTC)
2024-08-06 (1 year ago)
Launch vehicle
Unknown
Launch site
Taiyaun Space Center, China (TSC)
Object type
Payload
Rocket body
Debris
Shape & HBR
Unknown shape, 0.1 m
Radar Cross Section
Small (<0.1 m²)

Expand to show TLE details & history
Last TLE update: 21 hours ago

TLE from 21 hours ago
0 CZ-6A DEB
1 61824U 24140ACQ 25349.29957192  .00003371  00000-0  11517-2 0  9990
2 61824  88.9127 289.0919 0005077 245.6819 114.3850 14.36167673 65939
Epoch: 2025-12-15T07:11Z
TLE epoch observation values (Epoch: 2025-12-15T07:11:23.013Z)
Latitude
-0.00007°
Longitude
97.04589°
Altitude
775.765 km
Speed
7.465 km/s
True Right ascension
19h 16m 22s
True Declination
0° 00' 00"
Sunlit
Object was in daylight at epoch
Visualization orbit readout
Latitude
Unknown
Longitude
Unknown
Altitude
Unknown
Speed
Unknown
Apparent Right ascension
Unknown
Apparent Declination
Unknown
Sunlit
N/A
Visualization observer readout
Local Sidereal Time
02:28:36
Azimuth
Unknown
Elevation
Unknown
Doppler factor
Unknown
Orbital elements
Apogee altitude
771.745 km
Perigee altitude
764.489 km
Semi-major axis
7,146.254 km
Eccentricity
0.00051
Inclination
88.9127°
RAAN
289.0919°
Arg. of periapsis
245.6819°
True anomaly
114.43797°
Mean anomaly
114.385°
Eccentric anomaly
114.41149°
Mean motion
3.59274 °/min
Orbital period
100.2 mins
BSTAR
0.0011517
Loading maneuver chart data...
Computing Atmospheric mass density...
Loading historical data...
Loading historical data...
Loading historical data...
Loading historical data...
Loading historical data...
Loading historical data...
Loading historical data...

Documentation

Showing up to 5 results
|